Weather History for Blue Canyon, CA

Change the Weather History Date:

Tuesday, February 19, 2013

  Actual Average Record
Temperature  
Mean Temperature 26 °F -  
Max Temperature 32 °F 44 °F 64 °F (1977)
Min Temperature 21 °F 31 °F 18 °F (1953)
Degree Days  
Heating Degree Days 38    
Moisture  
Dew Point 24 °F    
Average Humidity 93    
Maximum Humidity 100    
Minimum Humidity 81    
Precipitation  
Precipitation 0.27 in - - ()
Sea Level Pressure  
Sea Level Pressure 29.69 in    
Wind  
Wind Speed 11 mph (South)    
Max Wind Speed 18 mph    
Max Gust Speed 30 mph    
Visibility 3 miles    
Events Fog , Rain , Snow    
Averages and records for this station are not official NWS values.
T = Trace of Precipitation, MM = Missing Value Source: NWS Daily Summary

Daily Weather History Graph

Daily Weather History Graph

Search for Another Location

Airport:

Trip Planner

Search our weather history database for the weather conditions in past years. The results will help you decide how hot, cold, wet, or windy it might be!

Date:

Astronomy

Feb. 19, 2013 Rise Set
Actual Time 6:49 AM PST 5:44 PM PST
Civil Twilight 6:21 AM PST 6:12 PM PST
Nautical Twilight 5:50 AM PST 6:43 PM PST
Astronomical Twilight 5:19 AM PST 7:14 PM PST
Moon 12:21 PM PST (2/19) 2:24 AM PST (2/19)
Length of Visible Light 11h 50m
Length of Day
10h 55m
Waxing Gibbous, 68% of the Moon is Illuminated
Feb 19
Waxing Gibbous
Feb 25
Full
Mar 4
Last Quarter
Mar 11
New
Mar 19
First Quarter

Hourly Weather History & Observations

Time (PST) Temp. Windchill Dew Point Humidity Pressure Visibility Wind Dir Wind Speed Gust Speed Precip Events Conditions
12:06 AM 32.0 °F 22.5 °F 30.2 °F 93% 29.82 in 2.0 mi SSE 12.7 mph 23.0 mph 0.00 in Snow Light Snow
12:23 AM 32.0 °F 22.1 °F 30.2 °F 93% 29.82 in 1.2 mi SSE 13.8 mph 19.6 mph 0.00 in Snow Light Snow
12:26 AM 32.0 °F 22.1 °F 30.2 °F 93% 29.82 in 0.8 mi South 13.8 mph - 0.00 in   Overcast
12:39 AM 32.0 °F 21.2 °F 30.2 °F 93% 29.81 in 0.2 mi South 16.1 mph 21.9 mph 0.00 in Fog , Snow Light Snow
12:52 AM 32.0 °F 21.2 °F 30.9 °F 96% 29.77 in 0.2 mi SSE 16.1 mph 25.3 mph 0.00 in Fog , Snow Light Snow
1:52 AM 28.0 °F 18.1 °F 28.0 °F 100% 29.80 in 0.2 mi South 11.5 mph 20.7 mph 0.03 in Fog , Snow Light Snow
2:52 AM 28.0 °F 17.5 °F 28.0 °F 100% 29.78 in 0.2 mi SSE 12.7 mph - 0.00 in Fog Light Freezing Fog
3:52 AM 27.0 °F 16.1 °F 26.1 °F 96% 29.76 in 0.2 mi South 12.7 mph 26.5 mph N/A Fog Light Freezing Fog
4:48 AM 26.6 °F 14.7 °F 26.6 °F 100% 29.76 in 0.5 mi South 15.0 mph 21.9 mph N/A Fog Light Freezing Fog
4:52 AM 26.1 °F 14.5 °F 25.0 °F 96% 29.78 in 0.8 mi South 13.8 mph 21.9 mph N/A   Overcast
5:03 AM 26.6 °F 14.7 °F 24.8 °F 93% 29.75 in 0.8 mi SSE 15.0 mph - N/A   Overcast
5:48 AM 26.6 °F 13.8 °F 24.8 °F 93% 29.75 in 0.2 mi South 17.3 mph - N/A Fog Light Freezing Fog
5:52 AM 26.1 °F 13.6 °F 25.0 °F 96% 29.78 in 0.5 mi South 16.1 mph - N/A Fog Light Freezing Fog
6:05 AM 24.8 °F 14.0 °F 24.8 °F 100% 29.75 in 1.0 mi South 11.5 mph - N/A   Mist
6:12 AM 24.8 °F 14.0 °F 24.8 °F 100% 29.75 in 0.8 mi South 11.5 mph - N/A   Mist
6:25 AM 24.8 °F 14.0 °F 24.8 °F 100% 29.75 in 0.2 mi South 11.5 mph - N/A Fog Light Freezing Fog
6:52 AM 25.0 °F 13.6 °F 25.0 °F 100% 29.78 in 0.2 mi South 12.7 mph - N/A Fog Light Freezing Fog
7:52 AM 25.0 °F 13.1 °F 25.0 °F 100% 29.78 in 0.2 mi South 13.8 mph - N/A Fog Light Freezing Fog
8:08 AM 26.6 °F 16.2 °F 24.8 °F 93% 29.72 in 0.2 mi South 11.5 mph - 0.00 in Fog , Rain Light Freezing Rain
8:28 AM 26.6 °F 16.2 °F 24.8 °F 93% 29.71 in 0.2 mi South 11.5 mph - 0.00 in Fog , Snow Light Snow
8:49 AM 26.6 °F 16.8 °F 24.8 °F 93% 29.70 in 0.2 mi SSE 10.4 mph 17.3 mph 0.02 in Fog , Snow Light Snow
8:52 AM 26.1 °F 15.0 °F 25.0 °F 96% 29.74 in 0.2 mi SSE 12.7 mph - 0.02 in Fog , Snow Light Snow
9:01 AM 26.6 °F 16.2 °F 24.8 °F 93% 29.69 in 0.8 mi SSE 11.5 mph 17.3 mph 0.00 in Snow Light Snow
9:43 AM 26.6 °F 16.2 °F 24.8 °F 93% 29.67 in 0.2 mi SSE 11.5 mph 20.7 mph 0.01 in Fog , Snow Heavy Snow
9:52 AM 27.0 °F 16.1 °F 25.0 °F 92% 29.70 in 0.2 mi SSE 12.7 mph 21.9 mph 0.02 in Fog , Snow Light Snow
10:09 AM 26.6 °F 14.3 °F 24.8 °F 93% 29.66 in 0.2 mi SSE 16.1 mph 23.0 mph 0.00 in Fog , Snow Snow
10:52 AM 27.0 °F 13.9 °F 26.1 °F 96% 29.69 in 0.2 mi South 18.4 mph 26.5 mph 0.00 in Fog , Snow Snow
11:52 AM 27.0 °F 13.9 °F 25.0 °F 92% 29.68 in 0.2 mi South 18.4 mph 29.9 mph 0.03 in Fog , Snow Heavy Snow
12:52 PM 26.1 °F 13.1 °F 25.0 °F 96% 29.66 in 0.2 mi South 17.3 mph 27.6 mph 0.02 in Fog , Snow Heavy Snow
1:52 PM 26.1 °F 16.8 °F 25.0 °F 96% 29.68 in 0.2 mi South 9.2 mph 20.7 mph 0.09 in Fog , Snow Heavy Snow
2:52 PM 25.0 °F 17.1 °F 24.1 °F 96% 29.67 in 0.2 mi SSW 6.9 mph - 0.05 in Fog , Snow Snow
4:21 PM 24.8 °F 20.5 °F 21.2 °F 86% 29.59 in 9.0 mi ENE 3.5 mph - 0.01 in   Overcast
4:28 PM 24.8 °F 20.5 °F 21.2 °F 86% 29.60 in 10.0 mi ENE 3.5 mph - 0.01 in   Overcast
4:41 PM 24.8 °F 20.5 °F 23.0 °F 93% 29.60 in 7.0 mi SW 3.5 mph - 0.01 in   Overcast
4:52 PM 24.1 °F - 21.9 °F 91% 29.68 in 10.0 mi Calm Calm - 0.01 in   Overcast
5:52 PM 24.1 °F - 21.9 °F 91% 29.69 in 10.0 mi Calm Calm - N/A   Overcast
6:00 PM 24.8 °F 20.5 °F 21.2 °F 86% 29.60 in 1.8 mi West 3.5 mph - N/A   Overcast
6:02 PM 24.8 °F - 21.2 °F 86% 29.60 in 1.0 mi Calm Calm - N/A   Overcast
6:09 PM 24.8 °F 20.5 °F 23.0 °F 93% 29.60 in 0.5 mi WSW 3.5 mph - N/A Fog Light Freezing Fog
6:16 PM 24.8 °F 20.5 °F 23.0 °F 93% 29.61 in 0.2 mi SW 3.5 mph - N/A Fog Light Freezing Fog
6:24 PM 24.8 °F - 23.0 °F 93% 29.61 in 0.5 mi Calm Calm - N/A Fog Light Freezing Fog
6:35 PM 24.8 °F - 23.0 °F 93% 29.61 in 0.2 mi Calm Calm - N/A Fog Light Freezing Fog
6:52 PM 24.1 °F 19.7 °F 23.0 °F 96% 29.70 in 0.2 mi West 3.5 mph - N/A Fog Light Freezing Fog
7:10 PM 23.0 °F - 21.2 °F 93% 29.61 in 0.5 mi Calm Calm - N/A Fog Light Freezing Fog
7:45 PM 23.0 °F 17.0 °F 21.2 °F 93% 29.60 in 1.5 mi West 4.6 mph - N/A   Overcast
7:48 PM 23.0 °F 18.4 °F 21.2 °F 93% 29.60 in 3.0 mi West 3.5 mph - N/A   Overcast
7:52 PM 23.0 °F 18.4 °F 21.0 °F 92% 29.71 in 5.0 mi West 3.5 mph - N/A   Overcast
8:11 PM 23.0 °F 18.4 °F 21.2 °F 93% 29.62 in 1.5 mi WNW 3.5 mph - N/A   Overcast
8:16 PM 23.0 °F 17.0 °F 21.2 °F 93% 29.61 in 0.8 mi West 4.6 mph - N/A   Mist
8:38 PM 24.8 °F 19.1 °F 21.2 °F 86% 29.62 in 2.0 mi NW 4.6 mph - N/A   Overcast
8:45 PM 23.0 °F 17.0 °F 21.2 °F 93% 29.62 in 10.0 mi NNW 4.6 mph - N/A   Overcast
8:52 PM 23.0 °F 15.8 °F 21.9 °F 96% 29.71 in 10.0 mi NNW 5.8 mph - N/A   Overcast
9:12 PM 23.0 °F 15.8 °F 21.2 °F 93% 29.62 in 10.0 mi NNW 5.8 mph - N/A   Overcast
9:39 PM 23.0 °F 15.8 °F 21.2 °F 93% 29.62 in 10.0 mi Variable 5.8 mph - N/A   Overcast
9:52 PM 23.0 °F 14.7 °F 19.9 °F 88% 29.72 in 10.0 mi North 6.9 mph - N/A   Mostly Cloudy
10:08 PM 21.2 °F 12.6 °F 19.4 °F 93% 29.62 in 10.0 mi North 6.9 mph - N/A   Mostly Cloudy
10:52 PM 21.9 °F 13.4 °F 19.0 °F 89% 29.72 in 10.0 mi Variable 6.9 mph - N/A   Clear
11:52 PM 23.0 °F 15.8 °F 18.0 °F 81% 29.75 in 10.0 mi NNE 5.8 mph - N/A   Partly Cloudy